FENGYUN 1C DEB

Satellite information

Favourite Embed

Satellite Type and Status

DEBRISIN ORBIT

Key statistics

Satellite FENGYUN 1C DEB at a glance.

Uptime

9609

Days in orbit

Revolutions

≈ 14.1

Per day

Orbit

SSO

Sun Synchronous Orbit

Inclination

98.8

Latest

Satellite identification and parameters

Extended collection of information and parameters for FENGYUN 1C DEB.

Object identification

Identified? True

Debris? True

Object name: FENGYUN 1C DEB

International designator: 1999-025AFZ

Object number (NORAD): 30462

Object ID (CCSDS): 30462

Country: PEOPLES REPUBLIC OF CHINA (PRC)

Current information (Y/N): Y

RCS size: SMALL

Orbital parameters

Period: 102.408 minutes

Inclination: 98.8078 deg

SMA: 7250.752 km

Apoapsis: 973.958 km

Periapsis: 771.277 km

RAAN: 232.9004 deg

Eccentricy: 0.01397656

Argument of periapsis: 184.2408 deg

Mean anomaly: 237.6032 deg

Mean motion: 14.06138746 rev/day

Mean motion (dot): 0.00000491 rev/day2

B* drag term: 0.00029757457 1/REarth

Two-line elements (TLE)

Creation date: Aug. 30, 2025, 3:38 a.m.

Reference frame: TEME

Reference center: EARTH

Epoch: Aug. 29, 2025, 9:49 p.m. UTC

TLE line 0: 0 FENGYUN 1C DEB

TLE line 1: 1 30462U 99025AFZ 25241.90935575 .00000491 00000-0 29757-3 0 9994

TLE line 2: 2 30462 98.8078 232.9004 0139766 184.2408 237.6032 14.06138746953208

Live tracking on map

Real-time ground track for satellite FENGYUN 1C DEB.

In-orbit conjunctions

A list of the most updated potential collisions computed for object FENGYUN 1C DEB.

Target Orbit TCA Probability of collision Miss distance Type
SL-18 R/B LEO 2025-06-27 08:51:08 0.0001737426 182.0 (m) ROCKET BODY
CZ-6A DEB LEO 2025-05-07 20:28:38 0.001113692 58.0 (m) DEBRIS
FENGYUN 1C DEB SSO 2024-12-12 21:17:00 0.000165749 233.0 (m) DEBRIS

Associated space launch

Chinese polar orbiting meteorological satellite

FENGYUN 1C DEB was lifted into orbit during the mission ‘Long March 4B | Feng Yun 1C’, on board a Long March 4B space rocket.

The launch took place on May 10, 1999, 1:33 a.m. from Launch Complex 7.

For more information about the launch, click the button.

Launch to space Long March 4B | Feng Yun 1C
Long March 4B | Feng Yun 1C

Agency: N/A

Status: Launch Successful

Launch date: May 10, 1999, 1:33 a.m. UTC

Rocket: Long March 4B

Launch pad: Launch Complex 7

Location: Taiyuan Satellite Launch Center, People's Republic of China

...

Latest news about this satellite

There are no fresh news available about this satellite. Check back as we update our databases every day.


Newsletter sign-up

Weekly statistics, charts and insights to help you stay on top of the space industry.